| time (UTC) | temp C | wind direction | speed KPH | gust KPH | rain 1hr cm | rain 24hr cm | rain mn cm | humidity % | barometer mb |
| 20260507040016 | 16 | 184 | 0.0 | 0.0 | 0.00 | 0.00 | 0.00 | 78 | 1015.3 |
| 20260507034516 | 16 | 190 | 0.0 | 0.0 | 0.00 | 0.00 | 0.00 | 77 | 1015.1 |
| 20260507033015 | 17 | 194 | 0.0 | 0.0 | 0.00 | 0.00 | 0.00 | 76 | 1015.1 |
| 20260507031515 | 17 | 204 | 0.0 | 0.0 | 0.00 | 0.00 | 0.00 | 75 | 1014.9 |
| 20260507030014 | 17 | 202 | 0.0 | 0.0 | 0.00 | 0.00 | 0.00 | 74 | 1014.7 |
| 20260507024514 | 18 | 217 | 0.0 | 4.8 | 0.00 | 0.00 | 0.00 | 72 | 1014.8 |
| 20260507023013 | 18 | 205 | 0.0 | 4.8 | 0.00 | 0.00 | 0.00 | 69 | 1014.7 |
| 20260507021518 | 19 | 217 | 0.0 | 4.8 | 0.00 | 0.00 | 0.00 | 67 | 1014.7 |
| 20260507020013 | 20 | 189 | 0.0 | 1.6 | 0.00 | 0.00 | 0.00 | 65 | 1014.8 |
| 20260507014510 | 20 | 200 | 0.0 | 6.4 | 0.00 | 0.00 | 0.00 | 63 | 1014.9 |
| 20260507013009 | 21 | 211 | 0.0 | 6.4 | 0.00 | 0.00 | 0.00 | 57 | 1014.9 |
| 20260507011509 | 22 | 189 | 1.6 | 6.4 | 0.00 | 0.00 | 0.00 | 56 | 1015.0 |
| 20260507010008 | 22 | 162 | 1.6 | 4.8 | 0.00 | 0.00 | 0.00 | 55 | 1014.9 |
| 20260507004507 | 22 | 206 | 3.2 | 8.0 | 0.00 | 0.00 | 0.00 | 54 | 1015.1 |
| 20260507003005 | 22 | 200 | 1.6 | 6.4 | 0.00 | 0.00 | 0.00 | 55 | 1015.2 |
| 20260507001510 | 22 | 172 | 3.2 | 8.0 | 0.00 | 0.00 | 0.00 | 56 | 1015.2 |
| 20260507000011 | 22 | 187 | 3.2 | 9.7 | 0.00 | 0.00 | 0.00 | 56 | 1015.1 |
| 20260506234507 | 23 | 225 | 1.6 | 6.4 | 0.00 | 0.00 | 0.00 | 54 | 1015.3 |
| 20260506233001 | 22 | 219 | 1.6 | 8.0 | 0.00 | 0.00 | 0.00 | 55 | 1015.3 |
| 20260506231559 | 22 | 166 | 3.2 | 11.3 | 0.00 | 0.00 | 0.00 | 53 | 1015.5 |
| 20260506230056 | 22 | 214 | 1.6 | 8.0 | 0.00 | 0.00 | 0.00 | 53 | 1015.7 |
| 20260506224603 | 22 | 193 | 3.2 | 11.3 | 0.00 | 0.00 | 0.00 | 53 | 1016.0 |
| 20260506223051 | 22 | 304 | 1.6 | 9.7 | 0.00 | 0.00 | 0.00 | 54 | 1016.3 |
| 20260506221553 | 22 | 129 | 3.2 | 9.7 | 0.00 | 0.00 | 0.00 | 54 | 1016.5 |
| 20260506220048 | 22 | 268 | 1.6 | 6.4 | 0.00 | 0.00 | 0.00 | 55 | 1016.8 |
| 20260506214606 | 22 | 156 | 3.2 | 9.7 | 0.00 | 0.00 | 0.00 | 55 | 1017.0 |
| 20260506213046 | 22 | 185 | 1.6 | 12.9 | 0.00 | 0.00 | 0.00 | 57 | 1017.1 |
| 20260506211544 | 22 | 124 | 3.2 | 14.5 | 0.00 | 0.00 | 0.00 | 58 | 1017.3 |
| 20260506210042 | 21 | 201 | 1.6 | 8.0 | 0.00 | 0.00 | 0.00 | 59 | 1017.3 |
| 20260506204539 | 21 | 192 | 3.2 | 11.3 | 0.00 | 0.00 | 0.00 | 62 | 1017.3 |
| 20260506203036 | 21 | 194 | 4.8 | 8.0 | 0.00 | 0.00 | 0.00 | 61 | 1017.4 |
| 20260506201535 | 20 | 162 | 3.2 | 9.7 | 0.00 | 0.00 | 0.00 | 63 | 1017.6 |
| 20260506200035 | 20 | 153 | 3.2 | 9.7 | 0.00 | 0.00 | 0.00 | 63 | 1017.7 |
| 20260506194533 | 20 | 213 | 1.6 | 11.3 | 0.00 | 0.00 | 0.00 | 60 | 1017.7 |
| 20260506193034 | 21 | 224 | 3.2 | 8.0 | 0.00 | 0.00 | 0.00 | 59 | 1017.8 |
| 20260506191535 | 21 | 171 | 1.6 | 6.4 | 0.00 | 0.00 | 0.00 | 61 | 1017.8 |
| 20260506190030 | 20 | 172 | 3.2 | 9.7 | 0.00 | 0.00 | 0.00 | 61 | 1017.9 |
| 20260506184531 | 20 | 288 | 1.6 | 9.7 | 0.00 | 0.00 | 0.00 | 62 | 1018.0 |
| 20260506183025 | 20 | 251 | 1.6 | 11.3 | 0.00 | 0.00 | 0.00 | 63 | 1018.1 |
| 20260506181525 | 20 | 194 | 4.8 | 9.7 | 0.00 | 0.00 | 0.00 | 64 | 1018.3 |
| 20260506180026 | 20 | 213 | 3.2 | 9.7 | 0.00 | 0.00 | 0.00 | 65 | 1018.3 |
| 20260506174520 | 19 | 166 | 3.2 | 9.7 | 0.00 | 0.00 | 0.00 | 66 | 1018.3 |
| 20260506173018 | 19 | 177 | 1.6 | 8.0 | 0.00 | 0.00 | 0.00 | 68 | 1018.2 |
| 20260506171518 | 18 | 227 | 1.6 | 11.3 | 0.00 | 0.00 | 0.00 | 68 | 1018.3 |
| 20260506170016 | 18 | 126 | 1.6 | 8.0 | 0.00 | 0.00 | 0.00 | 68 | 1018.2 |
| 20260506164517 | 18 | 113 | 0.0 | 4.8 | 0.00 | 0.00 | 0.00 | 70 | 1018.1 |
| 20260506163009 | 17 | 38 | 1.6 | 6.4 | 0.00 | 0.00 | 0.00 | 73 | 1018.1 |
| 20260506161503 | 16 | 155 | 1.6 | 6.4 | 0.00 | 0.00 | 0.00 | 78 | 1018.1 |
| 20260506160059 | 15 | 175 | 0.0 | 4.8 | 0.00 | 0.00 | 0.00 | 83 | 1018.0 |
| 20260506154612 | 15 | 184 | 0.0 | 3.2 | 0.00 | 0.00 | 0.00 | 88 | 1018.0 |
| 20260506153053 | 13 | 186 | 0.0 | 3.2 | 0.00 | 0.00 | 0.00 | 91 | 1018.0 |
| 20260506151551 | 12 | 234 | 0.0 | 0.0 | 0.00 | 0.00 | 0.00 | 93 | 1017.9 |
| 20260506150052 | 11 | 77 | 0.0 | 0.0 | 0.00 | 0.00 | 0.00 | 92 | 1018.1 |
| 20260506144559 | 11 | 77 | 0.0 | 0.0 | 0.00 | 0.00 | 0.00 | 92 | 1017.9 |
| 20260506143048 | 10 | 77 | 0.0 | 0.0 | 0.00 | 0.00 | 0.00 | 92 | 1017.8 |
| 20260506141547 | 10 | 77 | 0.0 | 0.0 | 0.00 | 0.00 | 0.00 | 91 | 1017.8 |
| 20260506140057 | 10 | 77 | 0.0 | 0.0 | 0.00 | 0.00 | 0.00 | 91 | 1017.7 |
| 20260506134543 | 9 | 77 | 0.0 | 0.0 | 0.00 | 0.00 | 0.00 | 91 | 1017.5 |
| 20260506133047 | 9 | 77 | 0.0 | 0.0 | 0.00 | 0.00 | 0.00 | 90 | 1017.4 |
| 20260506131541 | 9 | 78 | 0.0 | 0.0 | 0.00 | 0.00 | 0.00 | 90 | 1017.2 |
| 20260506130042 | 9 | 78 | 0.0 | 0.0 | 0.00 | 0.00 | 0.00 | 90 | 1017.2 |
| 20260506124538 | 9 | 78 | 0.0 | 0.0 | 0.00 | 0.00 | 0.00 | 89 | 1017.1 |
| 20260506123036 | 9 | 78 | 0.0 | 0.0 | 0.00 | 0.00 | 0.00 | 89 | 1017.1 |
| 20260506121535 | 10 | 78 | 0.0 | 0.0 | 0.00 | 0.00 | 0.00 | 89 | 1017.0 |
| 20260506120038 | 10 | 78 | 0.0 | 0.0 | 0.00 | 0.00 | 0.00 | 88 | 1017.1 |
| 20260506114532 | 10 | 78 | 0.0 | 0.0 | 0.00 | 0.00 | 0.00 | 88 | 1017.0 |
| 20260506113030 | 10 | 78 | 0.0 | 0.0 | 0.00 | 0.00 | 0.00 | 87 | 1017.1 |
| 20260506111528 | 10 | 78 | 0.0 | 0.0 | 0.00 | 0.00 | 0.00 | 87 | 1017.0 |
| 20260506110026 | 10 | 78 | 0.0 | 0.0 | 0.00 | 0.00 | 0.00 | 86 | 1016.8 |
| 20260506104524 | 10 | 108 | 0.0 | 0.0 | 0.00 | 0.00 | 0.00 | 86 | 1016.7 |
| 20260506103027 | 11 | 108 | 0.0 | 0.0 | 0.00 | 0.00 | 0.00 | 85 | 1016.7 |
| 20260506101528 | 11 | 108 | 0.0 | 0.0 | 0.00 | 0.00 | 0.00 | 85 | 1016.6 |
| 20260506100029 | 11 | 108 | 0.0 | 0.0 | 0.00 | 0.00 | 0.00 | 84 | 1016.5 |
| 20260506094519 | 12 | 108 | 0.0 | 0.0 | 0.00 | 0.00 | 0.00 | 84 | 1016.6 |
| 20260506093017 | 12 | 108 | 0.0 | 0.0 | 0.00 | 0.00 | 0.00 | 83 | 1016.5 |
| 20260506091512 | 12 | 108 | 0.0 | 0.0 | 0.00 | 0.00 | 0.00 | 82 | 1016.6 |
| 20260506090010 | 12 | 108 | 0.0 | 0.0 | 0.00 | 0.00 | 0.00 | 81 | 1016.6 |
| 20260506084510 | 13 | 108 | 0.0 | 0.0 | 0.00 | 0.00 | 0.00 | 81 | 1016.8 |
| 20260506083009 | 13 | 109 | 0.0 | 0.0 | 0.00 | 0.00 | 0.00 | 80 | 1016.9 |
| 20260506081504 | 13 | 109 | 0.0 | 0.0 | 0.00 | 0.00 | 0.00 | 79 | 1016.9 |
| 20260506073058 | 14 | 119 | 0.0 | 1.6 | 0.00 | 0.00 | 0.00 | 77 | 1016.6 |
| 20260506071558 | 14 | 37 | 0.0 | 1.6 | 0.00 | 0.00 | 0.00 | 76 | 1016.6 |
| 20260506061555 | 15 | 63 | 1.6 | 12.9 | 0.00 | 0.00 | 0.00 | 73 | 1016.0 |
| 20260506044548 | 16 | 333 | 1.6 | 6.4 | 0.00 | 0.00 | 0.00 | 66 | 1015.2 |
| 20260506043042 | 16 | 93 | 1.6 | 14.5 | 0.00 | 0.00 | 0.00 | 65 | 1015.1 |
| 20260506041541 | 17 | 40 | 3.2 | 9.7 | 0.00 | 0.00 | 0.00 | 65 | 1014.8 |